Regional Weather Roundup
Issued by NWS Charleston, WV

Home | Current Version | Previous Version | Graphics & Text | Print | Product List | Glossary On
Versions: 1 2 3 4 5 6 7 8 9 10 11 12 13 14 15 16 17 18 19 20 21 22 23 24 25 26 27 28 29 30 31 32 33 34 35 36 37 38 39 40 41 42 43 44 45 46 47 48 49 50
000
ASUS41 KRLX 052210
RWRRLX
West Virginia Regional Weather Roundup
National Weather Service Charleston WV
500 PM EST FRI FEB 05 2016

Note: "fair" indicates few or no clouds below 12,000 feet with no
significant weather and/or obstructions to visibility.

WVZ003-052300-
Northern Panhandle of West Virginia

CITY           SKY/WX    TMP DP  RH WIND       PRES   REMARKS
WHEELING         N/A     36  14  40 W7        30.34S
$$

WVZ009-052300-
Northwest West Virginia

CITY           SKY/WX    TMP DP  RH WIND       PRES   REMARKS
PARKERSBURG      N/A     39  15  37 CALM      30.40S
$$

WVZ006-052300-
Western West Virginia

CITY           SKY/WX    TMP DP  RH WIND       PRES   REMARKS
HUNTINGTON       N/A     40  13  33 CALM      30.39R
$$

WVZ015-052300-
West Central West Virginia

CITY           SKY/WX    TMP DP  RH WIND       PRES   REMARKS
CHARLESTON       N/A     39  15  37 NW5       30.39R
$$

WVZ022-031-052300-
North Central West Virginia

CITY           SKY/WX    TMP DP  RH WIND       PRES   REMARKS
CLARKSBURG       N/A     36  15  42 W7        30.35R
MORGANTOWN       N/A     36  13  38 NW5       30.35R
$$

WVZ025-035-042-045-052300-
Southern West Virginia

CITY           SKY/WX    TMP DP  RH WIND       PRES   REMARKS
BECKLEY          N/A     33  11  39 N8        30.31R
LOGAN            N/A     36  12  38 CALM      30.35S
BLUEFIELD        N/A     33   7  33 VRB6      30.30R
LEWISBURG        N/A     37  10  33 N7        30.30R
$$

WVZ047-052300-
Northern Mountains of West Virginia

CITY           SKY/WX    TMP DP  RH WIND       PRES   REMARKS
ELKINS           N/A     33  13  43 W6        30.32R
$$

WVZ052-052300-
Eastern Panhandle of West Virginia

CITY           SKY/WX    TMP DP  RH WIND       PRES   REMARKS
MARTINSBURG      N/A     37  14  38 NW8       30.33R
PETERSBURG       N/A     38  15  38 CALM      30.35R
$$



USA.gov is the U.S. government's official web portal to all federal, state and local government web resources and services.